Total_Precipitation_Accumulation
0.17 0.34 0.71 0.81 0.82 0.81 0.88 0.88 0.86 0.82 0.82 0.87 0.89 0.94 0.91 0.82 0.73 0.71 0.74 0.78 0.79 0.87 0.97 1.04 1.08 1.01 0.92 0.86 0.82 0.78 0.76 0.69 0.64 0.58 0.58 0.59 0.57 0.49 0.40 0.37 0.34 0.48 0.64
0.14 0.29 0.67 0.79 0.79 0.86 0.90 0.87 0.82 0.79 0.79 0.83 0.86 0.90 0.90 0.79 0.74 0.74 0.77 0.80 0.86 0.94 0.99 1.01 1.01 0.98 0.86 0.81 0.82 0.78 0.71 0.58 0.48 0.41 0.40 0.43 0.52 0.55 0.48 0.44 0.45 0.61 0.65
0.16 0.27 0.54 0.74 0.76 0.91 0.95 0.87 0.79 0.77 0.76 0.80 0.84 0.86 0.86 0.81 0.77 0.78 0.78 0.77 0.86 0.96 0.99 0.99 0.92 0.87 0.84 0.80 0.73 0.71 0.69 0.56 0.42 0.36 0.32 0.39 0.55 0.65 0.62 0.53 0.53 0.60 0.63
0.20 0.27 0.41 0.71 0.77 0.91 0.97 0.91 0.86 0.81 0.77 0.82 0.86 0.85 0.86 0.88 0.88 0.82 0.79 0.83 0.88 0.98 1.05 0.98 0.87 0.85 0.84 0.79 0.66 0.64 0.64 0.55 0.42 0.35 0.27 0.36 0.59 0.81 0.71 0.62 0.57 0.57 0.59
0.23 0.26 0.47 0.76 0.81 0.90 0.98 1.01 0.97 0.95 0.91 0.89 0.90 0.85 0.86 0.88 0.87 0.84 0.83 0.86 0.88 0.93 0.94 0.94 0.90 0.88 0.83 0.75 0.64 0.59 0.65 0.62 0.43 0.27 0.29 0.33 0.53 0.97 0.76 0.66 0.61 0.57 0.57
0.26 0.29 0.54 0.82 0.95 0.98 1.01 1.07 1.04 1.02 1.05 1.05 1.01 0.97 0.96 0.96 0.92 0.86 0.83 0.82 0.83 0.88 0.92 0.89 0.88 0.87 0.84 0.75 0.66 0.64 0.71 0.73 0.42 0.26 0.34 0.40 0.54 0.94 0.84 0.74 0.65 0.58 0.58
0.28 0.34 0.54 0.88 1.09 1.07 1.07 1.12 1.13 1.18 1.23 1.25 1.20 1.15 1.13 1.09 1.06 1.01 0.93 0.84 0.78 0.78 0.80 0.84 0.84 0.84 0.87 0.81 0.73 0.79 0.83 0.74 0.43 0.38 0.33 0.37 0.59 0.91 0.92 0.85 0.75 0.67 0.62
0.35 0.42 0.60 1.00 1.16 1.15 1.18 1.21 1.23 1.27 1.35 1.36 1.32 1.27 1.23 1.16 1.13 1.15 1.09 0.93 0.80 0.70 0.67 0.70 0.73 0.79 0.80 0.78 0.79 0.89 0.84 0.58 0.31 0.24 0.24 0.33 0.60 0.96 1.18 1.09 0.89 0.77 0.69
0.48 0.55 0.74 0.99 1.18 1.27 1.28 1.24 1.22 1.28 1.35 1.41 1.39 1.33 1.27 1.15 1.12 1.11 1.08 0.98 0.85 0.75 0.68 0.66 0.68 0.72 0.72 0.73 0.76 0.75 0.63 0.43 0.28 0.31 0.26 0.36 0.60 1.04 1.40 1.29 1.05 0.87 0.78
0.69 0.74 0.90 1.10 1.18 1.23 1.29 1.26 1.23 1.23 1.25 1.31 1.32 1.28 1.15 1.08 1.05 1.04 0.97 0.91 0.85 0.83 0.76 0.68 0.67 0.69 0.63 0.59 0.60 0.58 0.49 0.39 0.27 0.32 0.38 0.41 0.51 0.97 1.44 1.42 1.24 1.06 0.93
0.96 1.06 1.15 1.31 1.37 1.41 1.39 1.29 1.33 1.30 1.30 1.29 1.26 1.20 1.13 1.07 1.02 0.98 0.89 0.84 0.84 0.85 0.78 0.70 0.65 0.66 0.61 0.54 0.52 0.52 0.46 0.35 0.30 0.37 0.43 0.42 0.55 0.99 1.50 1.57 1.43 1.27 1.18
0.96 1.18 1.26 1.42 1.51 1.59 1.51 1.50 1.53 1.38 1.34 1.33 1.21 1.13 1.11 1.08 1.04 0.93 0.88 0.84 0.84 0.85 0.88 0.84 0.75 0.67 0.59 0.49 0.50 0.51 0.42 0.37 0.38 0.33 0.32 0.35 0.60 1.08 1.49 1.62 1.57 1.43 1.37
1.00 1.25 1.46 1.58 1.73 1.76 1.70 1.65 1.63 1.54 1.44 1.43 1.32 1.30 1.28 1.27 1.17 1.08 1.00 0.93 0.93 0.91 0.97 0.99 0.99 0.84 0.74 0.66 0.63 0.54 0.42 0.40 0.39 0.36 0.29 0.32 0.52 0.94 1.37 1.60 1.69 1.69 1.66
1.16 1.35 1.64 1.87 2.01 2.02 1.96 1.84 1.67 1.54 1.43 1.46 1.44 1.40 1.44 1.40 1.28 1.15 1.05 0.97 0.94 0.93 0.95 1.03 1.06 0.99 0.90 0.79 0.73 0.65 0.57 0.48 0.40 0.39 0.34 0.33 0.40 0.67 1.02 1.32 1.59 1.83 1.90
1.17 1.35 1.69 1.92 2.08 2.13 2.24 2.18 1.87 1.65 1.49 1.47 1.53 1.46 1.36 1.36 1.31 1.21 1.09 0.98 0.91 0.88 0.88 0.90 0.91 0.94 0.92 0.85 0.78 0.69 0.66 0.60 0.49 0.42 0.38 0.36 0.34 0.46 0.71 1.02 1.35 1.78 2.07
1.23 1.34 1.64 1.98 2.18 2.25 2.19 2.26 2.16 1.96 1.77 1.66 1.55 1.47 1.37 1.30 1.27 1.18 1.06 0.94 0.85 0.79 0.77 0.76 0.73 0.75 0.79 0.78 0.72 0.65 0.58 0.58 0.57 0.52 0.47 0.44 0.36 0.39 0.54 0.82 1.14 1.49 1.90
1.29 1.56 1.73 2.03 2.33 2.40 2.32 2.27 2.32 2.30 2.14 2.00 1.78 1.59 1.47 1.35 1.26 1.24 1.18 1.09 0.99 0.91 0.85 0.81 0.75 0.69 0.68 0.69 0.69 0.68 0.61 0.57 0.57 0.59 0.57 0.53 0.45 0.38 0.43 0.65 0.92 1.21 1.56
1.31 1.58 1.92 2.13 2.33 2.39 2.46 2.46 2.41 2.43 2.39 2.17 2.00 1.86 1.67 1.51 1.35 1.33 1.28 1.16 1.11 1.11 1.04 0.99 0.91 0.85 0.74 0.66 0.66 0.68 0.65 0.61 0.58 0.59 0.60 0.56 0.53 0.43 0.38 0.44 0.70 1.03 1.34
1.25 1.44 1.81 2.15 2.25 2.33 2.46 2.63 2.63 2.64 2.58 2.39 2.15 1.94 1.84 1.73 1.53 1.36 1.31 1.23 1.16 1.13 1.08 1.05 1.02 0.98 0.93 0.83 0.76 0.73 0.72 0.67 0.60 0.60 0.62 0.62 0.62 0.57 0.52 0.44 0.48 0.69 1.03
1.25 1.46 1.72 2.12 2.34 2.51 2.63 2.70 2.79 2.77 2.69 2.59 2.45 2.19 2.03 1.94 1.79 1.59 1.44 1.36 1.32 1.26 1.14 1.03 1.01 1.03 1.01 0.96 0.90 0.83 0.80 0.77 0.71 0.65 0.67 0.74 0.73 0.65 0.63 0.60 0.54 0.48 0.61
1.25 1.39 1.60 1.98 2.18 2.43 2.52 2.47 2.39 2.44 2.45 2.46 2.46 2.42 2.29 2.17 2.03 1.84 1.66 1.55 1.53 1.44 1.31 1.15 1.05 1.03 1.02 0.99 1.01 0.94 0.86 0.78 0.69 0.62 0.61 0.72 0.82 0.83 0.77 0.77 0.79 0.68 0.57
1.15 1.28 1.46 1.77 2.01 2.17 2.20 2.19 2.16 2.16 2.25 2.32 2.36 2.44 2.52 2.44 2.28 2.10 1.87 1.70 1.60 1.60 1.53 1.37 1.23 1.13 1.06 0.99 1.03 1.06 0.94 0.84 0.71 0.56 0.50 0.55 0.63 0.73 0.77 0.80 0.85 0.89 0.78
1.13 1.22 1.35 1.58 1.80 2.05 2.27 2.40 2.43 2.52 2.48 2.37 2.32 2.34 2.43 2.46 2.37 2.22 2.05 1.95 1.85 1.71 1.59 1.53 1.47 1.37 1.26 1.13 1.03 1.24 1.24 0.95 0.67 0.52 0.48 0.48 0.48 0.52 0.58 0.66 0.74 0.80 0.89
1.11 1.26 1.42 1.60 1.84 2.00 2.26 2.39 2.27 2.24 2.29 2.11 2.04 2.08 2.26 2.44 2.44 2.33 2.22 2.13 2.01 1.88 1.71 1.60 1.61 1.60 1.57 1.50 1.31 1.17 1.10 0.98 0.98 0.72 0.48 0.45 0.43 0.43 0.44 0.50 0.57 0.64 0.77
1.15 1.27 1.49 1.64 1.86 2.04 2.17 2.25 2.20 2.09 2.03 2.10 2.20 2.19 2.17 2.27 2.45 2.45 2.32 2.24 2.11 1.96 1.86 1.76 1.66 1.66 1.66 1.63 1.53 1.37 1.22 1.03 0.95 1.02 0.74 0.53 0.53 0.49 0.47 0.49 0.51 0.54 0.62
1.13 1.28 1.44 1.69 1.86 2.08 2.20 2.18 2.03 1.93 1.90 1.95 2.03 2.20 2.25 2.24 2.33 2.43 2.37 2.28 2.16 1.98 1.87 1.88 1.80 1.74 1.73 1.71 1.64 1.53 1.44 1.34 1.11 1.10 0.99 0.68 0.60 0.58 0.56 0.55 0.57 0.58 0.64